Station Historical Data
Daily Summary for January 4, 2017 Units:  Metric    English   Both
Next Day »
Daily Weekly Monthly Yearly Custom
  High: Low: Average:
Temperature: 7.4 °C 5.2 °C 6.4 °C
Dew Point: 6.9 °C 4.6 °C 5.9 °C
Humidity: 97% 96% 97%
Wind Speed: 40.2km/h 0km/h 9.2km/h
Wind Gust: 56.3km/h - -
Wind- - SSW
Pressure: 1016.1 hPa 1013.1 hPa -
Precipitation: 0 mm    
Historical Graphs
 
 
Tabular Data for January 4, 2017
Time Temperature Dew Point Pressure Wind Wind Speed Wind Gust Humidity Rainfall Rate (Hourly) solar Conditions
00:00 6.8 °C 6.3 °C 1014.1 hPa SSE 16.1 km/h 41.8 km/h 97% 3.3 mm 0.00 W/m2
00:05 6.8 °C 6.3 °C 1014.4 hPa South 8 km/h 49.9 km/h 97% 3.81 mm 0.00 W/m2
00:10 6.8 °C 6.3 °C 1014.1 hPa SSE 16.1 km/h 38.6 km/h 97% 3.05 mm 0.00 W/m2
00:15 6.8 °C 6.3 °C 1014.1 hPa SSE 16.1 km/h 43.5 km/h 97% 5.33 mm 0.00 W/m2
00:20 6.8 °C 6.4 °C 1014.1 hPa South 11.3 km/h 38.6 km/h 97% 2.03 mm 0.00 W/m2
00:25 6.8 °C 6.4 °C 1014.1 hPa SSE 30.6 km/h 49.9 km/h 97% 1.78 mm 0.00 W/m2
00:30 6.8 °C 6.4 °C 1013.8 hPa South 29 km/h 38.6 km/h 97% 3.05 mm 0.00 W/m2
00:35 6.8 °C 6.4 °C 1014.1 hPa South 22.5 km/h 48.3 km/h 97% 1.78 mm 0.00 W/m2
00:40 6.9 °C 6.4 °C 1014.1 hPa South 24.1 km/h 49.9 km/h 97% 1.27 mm 0.00 W/m2
00:45 6.9 °C 6.5 °C 1013.8 hPa South 19.3 km/h 43.5 km/h 97% 1.02 mm 0.00 W/m2
00:50 6.9 °C 6.5 °C 1013.8 hPa SSE 22.5 km/h 56.3 km/h 97% 1.02 mm 0.00 W/m2
00:55 7 °C 6.6 °C 1013.8 hPa SSE 16.1 km/h 46.7 km/h 97% 2.03 mm 0.00 W/m2
01:00 6.9 °C 6.3 °C 1013.8 hPa South 32.2 km/h 40.2 km/h 96% 2.03 mm 0.00 W/m2
01:05 6.9 °C 6.3 °C 1013.4 hPa South 8 km/h 41.8 km/h 96% 4.32 mm 0.00 W/m2
01:10 6.9 °C 6.3 °C 1013.8 hPa South 25.7 km/h 38.6 km/h 96% 4.06 mm 0.00 W/m2
01:15 6.9 °C 6.3 °C 1013.4 hPa SW 24.1 km/h 40.2 km/h 96% 2.29 mm 0.00 W/m2
01:20 7 °C 6.6 °C 1013.4 hPa SSW 24.1 km/h 38.6 km/h 97% 2.03 mm 0.00 W/m2
01:25 7 °C 6.6 °C 1013.4 hPa South 16.1 km/h 37 km/h 97% 1.27 mm 0.00 W/m2
01:30 7.1 °C 6.6 °C 1013.4 hPa South 35.4 km/h 49.9 km/h 97% 1.27 mm 0.00 W/m2
01:35 7.2 °C 6.7 °C 1013.1 hPa SSW 29 km/h 40.2 km/h 97% 1.78 mm 0.00 W/m2
01:40 7.2 °C 6.7 °C 1013.1 hPa SSE 20.9 km/h 40.2 km/h 97% 4.57 mm 0.00 W/m2
01:45 7.2 °C 6.7 °C 1013.1 hPa South 6.4 km/h 40.2 km/h 97% 7.37 mm 0.00 W/m2
01:50 7.2 °C 6.7 °C 1013.1 hPa SSE 27.4 km/h 40.2 km/h 97% 2.54 mm 0.00 W/m2
01:55 7.2 °C 6.7 °C 1013.1 hPa SSE 30.6 km/h 45.1 km/h 97% 1.52 mm 0.00 W/m2
02:00 7.2 °C 6.7 °C 1013.1 hPa SSW 27.4 km/h 51.5 km/h 97% 1.52 mm 0.00 W/m2
02:05 7.2 °C 6.7 °C 1013.1 hPa SSE 29 km/h 49.9 km/h 97% 1.52 mm 0.00 W/m2
02:10 7.2 °C 6.8 °C 1013.4 hPa SSE 14.5 km/h 53.1 km/h 97% 3.05 mm 0.00 W/m2
02:15 7.2 °C 6.8 °C 1013.1 hPa SSE 17.7 km/h 46.7 km/h 97% 3.05 mm 0.00 W/m2
02:20 7.2 °C 6.8 °C 1013.4 hPa SW 19.3 km/h 51.5 km/h 97% 2.54 mm 0.00 W/m2
02:25 7.2 °C 6.8 °C 1013.8 hPa SSE 16.1 km/h 43.5 km/h 97% 5.33 mm 0.00 W/m2
02:30 7.2 °C 6.8 °C 1014.1 hPa SSE 19.3 km/h 48.3 km/h 97% 2.54 mm 0.00 W/m2
02:35 7.3 °C 6.8 °C 1014.1 hPa Calm   48.3 km/h 97% 5.59 mm 0.00 W/m2
02:40 7.3 °C 6.9 °C 1014.1 hPa SSW 40.2 km/h 46.7 km/h 97% 4.57 mm 0.00 W/m2
02:45 7.3 °C 6.9 °C 1014.1 hPa South 27.4 km/h 41.8 km/h 97% 4.06 mm 0.00 W/m2
02:50 7.3 °C 6.9 °C 1014.4 hPa SW 14.5 km/h 37 km/h 97% 1.78 mm 0.00 W/m2
02:55 7.3 °C 6.7 °C 1014.4 hPa SSW 24.1 km/h 40.2 km/h 96% 5.08 mm 0.00 W/m2
03:00 7.3 °C 6.7 °C 1014.1 hPa South 11.3 km/h 48.3 km/h 96% 6.1 mm 0.00 W/m2
03:05 7.3 °C 6.9 °C 1014.4 hPa West 16.1 km/h 37 km/h 97% 4.06 mm 0.00 W/m2
03:10 7.3 °C 6.9 °C 1014.4 hPa SW 6.4 km/h 37 km/h 97% 5.33 mm 0.00 W/m2
03:15 7.3 °C 6.9 °C 1014.8 hPa SW 12.9 km/h 25.7 km/h 97% 4.06 mm 0.00 W/m2
03:20 7.3 °C 6.7 °C 1014.4 hPa South 8 km/h 45.1 km/h 96% 15.49 mm 0.00 W/m2
03:25 7.3 °C 6.7 °C 1014.8 hPa SW 8 km/h 29 km/h 96% 6.86 mm 0.00 W/m2
03:30 7.2 °C 6.6 °C 1014.8 hPa SSW 11.3 km/h 32.2 km/h 96% 9.65 mm 0.00 W/m2
03:35 7.2 °C 6.6 °C 1015.1 hPa WSW 11.3 km/h 35.4 km/h 96% 6.86 mm 0.00 W/m2
03:40 7.2 °C 6.6 °C 1015.1 hPa West 8 km/h 30.6 km/h 96% 15.24 mm 0.00 W/m2
03:45 7.2 °C 6.6 °C 1015.5 hPa WSW 6.4 km/h 22.5 km/h 96% 7.11 mm 0.00 W/m2
03:50 7.1 °C 6.5 °C 1015.5 hPa SSW 27.4 km/h 33.8 km/h 96% 4.06 mm 0.00 W/m2
03:55 7.1 °C 6.5 °C 1015.1 hPa WSW 9.7 km/h 37 km/h 96% 5.84 mm 0.00 W/m2
04:00 7.1 °C 6.5 °C 1015.1 hPa SW 16.1 km/h 38.6 km/h 96% 2.03 mm 0.00 W/m2
04:05 7.1 °C 6.5 °C 1014.8 hPa SSW 8 km/h 29 km/h 96% 2.03 mm 0.00 W/m2
04:10 7.2 °C 6.6 °C 1015.1 hPa SSW 8 km/h 38.6 km/h 96% 3.3 mm 0.00 W/m2
04:15 7.2 °C 6.6 °C 1014.8 hPa SSW 11.3 km/h 30.6 km/h 96% 3.05 mm 0.00 W/m2
04:20 7.2 °C 6.6 °C 1015.1 hPa SSW 22.5 km/h 43.5 km/h 96% 3.05 mm 0.00 W/m2
04:25 7.2 °C 6.6 °C 1014.8 hPa SSW 22.5 km/h 40.2 km/h 96% 3.56 mm 0.00 W/m2
04:30 7.2 °C 6.6 °C 1015.1 hPa SSW 1.6 km/h 33.8 km/h 96% 3.81 mm 0.00 W/m2
04:35 7.2 °C 6.6 °C 1015.1 hPa SSW 8 km/h 29 km/h 96% 4.57 mm 0.00 W/m2
04:40 7.1 °C 6.5 °C 1014.8 hPa SSW 8 km/h 32.2 km/h 96% 2.03 mm 0.00 W/m2
04:45 7.1 °C 6.5 °C 1014.8 hPa South 19.3 km/h 35.4 km/h 96% 1.52 mm 0.00 W/m2
04:50 7.1 °C 6.4 °C 1014.8 hPa South 11.3 km/h 32.2 km/h 96% 1.52 mm 0.00 W/m2
04:55 7.1 °C 6.4 °C 1014.8 hPa SSE 16.1 km/h 38.6 km/h 96% 1.52 mm 0.00 W/m2
05:00 7 °C 6.4 °C 1014.8 hPa SSW 4.8 km/h 37 km/h 96% 1.52 mm 0.00 W/m2
05:05 7 °C 6.4 °C 1014.4 hPa SSW 11.3 km/h 38.6 km/h 96% 5.08 mm 0.00 W/m2
05:11 7 °C 6.4 °C 1014.8 hPa SSW 6.4 km/h 35.4 km/h 96% 3.05 mm 0.00 W/m2
05:16 7 °C 6.4 °C 1014.8 hPa South 9.7 km/h 38.6 km/h 96% 3.81 mm 0.00 W/m2
05:21 7.1 °C 6.4 °C 1014.8 hPa SSW 32.2 km/h 41.8 km/h 96% 3.05 mm 0.00 W/m2
05:26 7.1 °C 6.4 °C 1015.1 hPa South 32.2 km/h 38.6 km/h 96% 6.1 mm 0.00 W/m2
05:31 7.1 °C 6.4 °C 1015.1 hPa SSW 22.5 km/h 32.2 km/h 96% 7.37 mm 0.00 W/m2
05:36 7.1 °C 6.6 °C 1015.1 hPa South 12.9 km/h 41.8 km/h 97% 2.54 mm 0.00 W/m2
05:41 7.1 °C 6.6 °C 1015.1 hPa SW 12.9 km/h 38.6 km/h 97% 4.06 mm 0.00 W/m2
05:46 7.1 °C 6.4 °C 1015.1 hPa South 9.7 km/h 29 km/h 96% 2.54 mm 0.00 W/m2
05:51 7.1 °C 6.6 °C 1015.1 hPa SSW 22.5 km/h 30.6 km/h 97% 2.03 mm 0.00 W/m2
05:56 7.1 °C 6.4 °C 1015.1 hPa SW 20.9 km/h 29 km/h 96% 1.78 mm 0.00 W/m2
06:01 7.1 °C 6.4 °C 1015.1 hPa South 3.2 km/h 29 km/h 96% 1.27 mm 0.00 W/m2
06:06 7.1 °C 6.6 °C 1015.1 hPa SSW 14.5 km/h 35.4 km/h 97% 2.54 mm 0.00 W/m2
06:11 7.1 °C 6.4 °C 1015.1 hPa SSE 20.9 km/h 35.4 km/h 96% 2.54 mm 0.00 W/m2
06:16 7.1 °C 6.6 °C 1014.8 hPa South 12.9 km/h 33.8 km/h 97% 1.52 mm 0.00 W/m2
06:21 7.1 °C 6.6 °C 1014.8 hPa SSW 19.3 km/h 35.4 km/h 97% 1.27 mm 0.00 W/m2
06:26 7.1 °C 6.6 °C 1015.1 hPa South 20.9 km/h 40.2 km/h 97% 1.27 mm 0.00 W/m2
06:31 7 °C 6.6 °C 1015.1 hPa SSW 1.6 km/h 35.4 km/h 97% 6.6 mm 0.00 W/m2
06:36 7 °C 6.4 °C 1015.5 hPa SW 4.8 km/h 32.2 km/h 96% 4.83 mm 0.00 W/m2
06:41 6.9 °C 6.3 °C 1015.8 hPa West 3.2 km/h 17.7 km/h 96% 14.73 mm 0.00 W/m2
06:46 6.9 °C 6.3 °C 1015.8 hPa SW 3.2 km/h 22.5 km/h 96% 12.95 mm 0.00 W/m2
06:51 6.9 °C 6.3 °C 1015.8 hPa SSW 8 km/h 19.3 km/h 96% 4.32 mm 0.00 W/m2
06:56 6.9 °C 6.3 °C 1015.5 hPa South 6.4 km/h 29 km/h 96% 2.29 mm 0.00 W/m2
07:01 6.9 °C 6.3 °C 1015.5 hPa South 6.4 km/h 27.4 km/h 96% 1.27 mm 0.00 W/m2
07:06 6.9 °C 6.3 °C 1015.5 hPa SSE 14.5 km/h 37 km/h 96% 1.02 mm 0.00 W/m2
07:11 6.9 °C 6.3 °C 1015.5 hPa SSW 14.5 km/h 30.6 km/h 96% 0 mm 0.00 W/m2
07:16 6.9 °C 6.3 °C 1015.5 hPa SSW 17.7 km/h 25.7 km/h 96% 0 mm 0.00 W/m2
07:21 6.9 °C 6.3 °C 1015.5 hPa SW 32.2 km/h 33.8 km/h 96% 0 mm 0.00 W/m2
07:26 6.9 °C 6.5 °C 1015.5 hPa South 19.3 km/h 37 km/h 97% 0 mm 0.00 W/m2
07:31 7 °C 6.6 °C 1015.5 hPa SSE 19.3 km/h 32.2 km/h 97% 0 mm 0.00 W/m2
07:36 6.9 °C 6.5 °C 1015.5 hPa SW 9.7 km/h 9.7 km/h 97% 0 mm 0.00 W/m2
07:41 6.9 °C 6.5 °C 1015.5 hPa SW 17.7 km/h 38.6 km/h 97% 0 mm 0.00 W/m2
07:46 7 °C 6.6 °C 1015.5 hPa South 17.7 km/h 32.2 km/h 97% 0 mm 5.00 W/m2
07:51 7 °C 6.6 °C 1015.8 hPa South 22.5 km/h 32.2 km/h 97% 0 mm 0.00 W/m2
07:56 7 °C 6.6 °C 1015.5 hPa SSW 16.1 km/h 30.6 km/h 97% 0 mm 0.00 W/m2
08:01 7 °C 6.6 °C 1015.8 hPa SSW 17.7 km/h 29 km/h 97% 0 mm 0.00 W/m2
08:06 7 °C 6.6 °C 1015.5 hPa SSW 4.8 km/h 40.2 km/h 97% 10.92 mm 5.00 W/m2
08:11 7.1 °C 6.6 °C 1015.5 hPa South 19.3 km/h 38.6 km/h 97% 3.56 mm 7.00 W/m2
08:16 7.1 °C 6.6 °C 1015.5 hPa SSW 25.7 km/h 35.4 km/h 97% 5.84 mm 7.00 W/m2
08:21 7.1 °C 6.6 °C 1015.5 hPa SW 19.3 km/h 19.3 km/h 97% 3.56 mm 7.00 W/m2
08:26 7.1 °C 6.6 °C 1015.5 hPa South 6.4 km/h 27.4 km/h 97% 3.56 mm 5.00 W/m2
08:31 7.1 °C 6.6 °C 1015.8 hPa WSW 4.8 km/h 30.6 km/h 97% 2.03 mm 5.00 W/m2
08:36 7.1 °C 6.6 °C 1015.8 hPa Calm     97% 1.52 mm 11.00 W/m2
08:41 7.1 °C 6.6 °C 1015.8 hPa SSW 11.3 km/h 25.7 km/h 97% 7.11 mm 9.00 W/m2
08:46 7.1 °C 6.6 °C 1015.8 hPa WSW 6.4 km/h 29 km/h 97% 9.65 mm 7.00 W/m2
08:51 7.1 °C 6.6 °C 1016.1 hPa SSW 3.2 km/h 32.2 km/h 97% 9.65 mm 9.00 W/m2
08:56 7.1 °C 6.6 °C 1016.1 hPa South 3.2 km/h 29 km/h 97% 6.6 mm 7.00 W/m2
09:01 7.1 °C 6.6 °C 1016.1 hPa Calm   17.7 km/h 97% 5.84 mm 7.00 W/m2
09:06 7.1 °C 6.6 °C 1015.8 hPa Calm   17.7 km/h 97% 4.32 mm 9.00 W/m2
09:11 7.1 °C 6.6 °C 1015.8 hPa SSW 16.1 km/h 29 km/h 97% 3.56 mm 9.00 W/m2
09:16 7.1 °C 6.6 °C 1015.8 hPa Calm     97% 2.03 mm 11.00 W/m2
09:21 7.1 °C 6.6 °C 1015.8 hPa South 11.3 km/h 12.9 km/h 97% 2.03 mm 12.00 W/m2
09:26 7 °C 6.6 °C 1015.8 hPa SSW 19.3 km/h 22.5 km/h 97% 1.52 mm 12.00 W/m2
09:31 7.1 °C 6.6 °C 1015.8 hPa SSW 9.7 km/h 9.7 km/h 97% 4.57 mm 14.00 W/m2
09:36 7.1 °C 6.6 °C 1015.8 hPa South 3.2 km/h 8 km/h 97% 2.03 mm 12.00 W/m2
09:41 7.1 °C 6.6 °C 1016.1 hPa SSW 16.1 km/h 24.1 km/h 97% 5.08 mm 12.00 W/m2
09:46 7.1 °C 6.6 °C 1016.1 hPa SSW 9.7 km/h 14.5 km/h 97% 1.78 mm 12.00 W/m2
09:51 7.1 °C 6.6 °C 1015.8 hPa South 12.9 km/h 20.9 km/h 97% 1.27 mm 30.00 W/m2
09:56 7.1 °C 6.6 °C 1016.1 hPa South 22.5 km/h 32.2 km/h 97% 4.32 mm 28.00 W/m2
10:01 7.1 °C 6.6 °C 1016.1 hPa SSE 16.1 km/h 22.5 km/h 97% 2.54 mm 30.00 W/m2
10:06 7.1 °C 6.7 °C 1016.1 hPa SSW 16.1 km/h 25.7 km/h 97% 1.52 mm 39.00 W/m2
10:11 7.1 °C 6.7 °C 1016.1 hPa WSW 17.7 km/h 17.7 km/h 97% 1.02 mm 32.00 W/m2
10:16 7.2 °C 6.7 °C 1016.1 hPa South 9.7 km/h 22.5 km/h 97% 1.02 mm 28.00 W/m2
10:21 7.2 °C 6.7 °C 1015.8 hPa South 27.4 km/h 30.6 km/h 97% 1.02 mm 39.00 W/m2
10:26 7.2 °C 6.8 °C 1015.8 hPa SSW 22.5 km/h 35.4 km/h 97% 1.02 mm 33.00 W/m2
10:31 7.2 °C 6.8 °C 1016.1 hPa SSW 33.8 km/h 33.8 km/h 97% 0 mm 42.00 W/m2
10:36 7.3 °C 6.8 °C 1015.8 hPa SSE 9.7 km/h 24.1 km/h 97% 0 mm 21.00 W/m2
10:41 7.3 °C 6.8 °C 1016.1 hPa South 16.1 km/h 16.1 km/h 97% 0 mm 25.00 W/m2
10:46 7.3 °C 6.9 °C 1016.1 hPa SSW 20.9 km/h 27.4 km/h 97% 0 mm 18.00 W/m2
10:51 7.3 °C 6.9 °C 1016.1 hPa SSW 9.7 km/h 17.7 km/h 97% 1.02 mm 37.00 W/m2
10:56 7.4 °C 6.9 °C 1016.1 hPa WSW 6.4 km/h 17.7 km/h 97% 4.57 mm 18.00 W/m2
11:01 7.4 °C 6.9 °C 1016.1 hPa SW 12.9 km/h 16.1 km/h 97% 3.56 mm 28.00 W/m2
11:06 7.4 °C 6.9 °C 1015.8 hPa Calm   12.9 km/h 97% 4.06 mm 40.00 W/m2
11:12 7.4 °C 6.9 °C 1015.8 hPa SSW 20.9 km/h 20.9 km/h 97% 3.56 mm 23.00 W/m2
11:17 7.3 °C 6.9 °C 1015.8 hPa Calm   3.2 km/h 97% 2.29 mm 25.00 W/m2
11:22 7.3 °C 6.9 °C 1015.8 hPa WSW 6.4 km/h 19.3 km/h 97% 5.59 mm 25.00 W/m2
11:27 7.3 °C 6.9 °C 1015.8 hPa SW 17.7 km/h 22.5 km/h 97% 5.08 mm 39.00 W/m2
11:32 7.3 °C 6.8 °C 1015.5 hPa SW 8 km/h 25.7 km/h 97% 7.37 mm 35.00 W/m2
11:37 7.2 °C 6.8 °C 1015.5 hPa SW 9.7 km/h 20.9 km/h 97% 6.86 mm 30.00 W/m2
11:42 7.2 °C 6.8 °C 1015.5 hPa SW 16.1 km/h 20.9 km/h 97% 5.59 mm 39.00 W/m2
11:47 7.2 °C 6.8 °C 1015.5 hPa WSW 11.3 km/h 14.5 km/h 97% 6.86 mm 39.00 W/m2
11:52 7.2 °C 6.8 °C 1015.1 hPa South 16.1 km/h 17.7 km/h 97% 3.3 mm 33.00 W/m2
11:57 7.2 °C 6.8 °C 1015.1 hPa SSW 12.9 km/h 17.7 km/h 97% 3.05 mm 25.00 W/m2
12:02 7.2 °C 6.8 °C 1015.1 hPa Calm   22.5 km/h 97% 3.05 mm 28.00 W/m2
12:07 7.3 °C 6.8 °C 1015.1 hPa SW 17.7 km/h 19.3 km/h 97% 6.1 mm 25.00 W/m2
12:12 7.3 °C 6.8 °C 1015.1 hPa SW 29 km/h 35.4 km/h 97% 6.35 mm 32.00 W/m2
12:17 7.2 °C 6.8 °C 1015.1 hPa WSW 11.3 km/h 24.1 km/h 97% 6.6 mm 32.00 W/m2
12:22 7.3 °C 6.8 °C 1015.1 hPa SW 14.5 km/h 19.3 km/h 97% 5.84 mm 26.00 W/m2
12:27 7.2 °C 6.8 °C 1015.1 hPa West 14.5 km/h 27.4 km/h 97% 6.1 mm 33.00 W/m2
12:32 7.2 °C 6.8 °C 1015.1 hPa West 12.9 km/h 14.5 km/h 97% 8.89 mm 23.00 W/m2
12:37 7.2 °C 6.8 °C 1015.1 hPa WSW 11.3 km/h 19.3 km/h 97% 5.84 mm 23.00 W/m2
12:42 7.2 °C 6.8 °C 1015.1 hPa SW 14.5 km/h 20.9 km/h 97% 5.84 mm 33.00 W/m2
12:47 7.2 °C 6.7 °C 1014.8 hPa SW 16.1 km/h 19.3 km/h 97% 5.08 mm 42.00 W/m2
12:52 7.2 °C 6.7 °C 1014.8 hPa WSW 9.7 km/h 22.5 km/h 97% 3.3 mm 33.00 W/m2
12:57 7.2 °C 6.7 °C 1014.8 hPa SW 20.9 km/h 22.5 km/h 97% 4.32 mm 37.00 W/m2
13:02 7.2 °C 6.7 °C 1014.8 hPa SW 11.3 km/h 24.1 km/h 97% 2.54 mm 33.00 W/m2
13:07 7.1 °C 6.7 °C 1014.8 hPa WSW 12.9 km/h 19.3 km/h 97% 3.56 mm 28.00 W/m2
13:12 7.1 °C 6.7 °C 1014.8 hPa WSW 8 km/h 16.1 km/h 97% 7.37 mm 26.00 W/m2
13:17 7.1 °C 6.7 °C 1014.8 hPa West 12.9 km/h 25.7 km/h 97% 5.08 mm 37.00 W/m2
13:22 7.1 °C 6.7 °C 1014.8 hPa WSW 3.2 km/h 12.9 km/h 97% 4.32 mm 28.00 W/m2
13:27 7.1 °C 6.6 °C 1014.8 hPa WSW 24.1 km/h 33.8 km/h 97% 5.33 mm 28.00 W/m2
13:32 7 °C 6.6 °C 1014.8 hPa WSW 11.3 km/h 20.9 km/h 97% 4.06 mm 28.00 W/m2
13:37 6.9 °C 6.5 °C 1015.1 hPa WSW 9.7 km/h 20.9 km/h 97% 4.32 mm 32.00 W/m2
13:42 6.8 °C 6.4 °C 1015.1 hPa WSW 12.9 km/h 29 km/h 97% 3.05 mm 28.00 W/m2
13:47 6.8 °C 6.3 °C 1015.1 hPa West 12.9 km/h 27.4 km/h 97% 4.83 mm 33.00 W/m2
13:52 6.7 °C 6.2 °C 1015.1 hPa SW 11.3 km/h 20.9 km/h 97% 3.05 mm 33.00 W/m2
13:57 6.6 °C 6.2 °C 1015.1 hPa SW 9.7 km/h 16.1 km/h 97% 2.29 mm 25.00 W/m2
14:02 6.6 °C 5.9 °C 1015.5 hPa WSW 11.3 km/h 24.1 km/h 96% 3.56 mm 26.00 W/m2
14:07 6.5 °C 5.9 °C 1015.1 hPa Calm   12.9 km/h 96% 5.33 mm 21.00 W/m2
14:12 6.5 °C 5.9 °C 1015.1 hPa West 11.3 km/h 14.5 km/h 96% 3.3 mm 25.00 W/m2
14:17 6.5 °C 5.9 °C 1015.1 hPa West 8 km/h 16.1 km/h 96% 3.56 mm 25.00 W/m2
14:22 6.5 °C 5.9 °C 1015.1 hPa SW 8 km/h 19.3 km/h 96% 3.05 mm 21.00 W/m2
14:27 6.5 °C 5.9 °C 1015.1 hPa SW 4.8 km/h 25.7 km/h 96% 4.83 mm 35.00 W/m2
14:32 6.5 °C 5.9 °C 1015.1 hPa SW 8 km/h 16.1 km/h 96% 2.29 mm 26.00 W/m2
14:37 6.4 °C 5.8 °C 1015.1 hPa West 16.1 km/h 20.9 km/h 96% 3.56 mm 30.00 W/m2
14:47 6.4 °C 5.8 °C 1015.5 hPa West 12.9 km/h 19.3 km/h 96% 2.03 mm 39.00 W/m2
14:53 6.3 °C 5.7 °C 1015.5 hPa West 4.8 km/h 14.5 km/h 96% 2.29 mm 32.00 W/m2
15:02 6.3 °C 5.7 °C 1015.5 hPa West 9.7 km/h 14.5 km/h 96% 2.03 mm 19.00 W/m2
15:08 6.2 °C 5.6 °C 1015.5 hPa West 14.5 km/h 17.7 km/h 96% 3.56 mm 21.00 W/m2
15:13 6.2 °C 5.6 °C 1015.8 hPa West 9.7 km/h 16.1 km/h 96% 2.54 mm 14.00 W/m2
15:18 6.1 °C 5.4 °C 1015.8 hPa Calm   12.9 km/h 96% 3.05 mm 16.00 W/m2
15:23 6 °C 5.4 °C 1015.8 hPa WSW 11.3 km/h 14.5 km/h 96% 2.03 mm 14.00 W/m2
15:28 5.9 °C 5.3 °C 1015.8 hPa WSW 11.3 km/h 12.9 km/h 96% 2.54 mm 14.00 W/m2
15:29 5.9 °C 5.3 °C 1015.8 hPa Calm   12.9 km/h 96% 2.54 mm 16.00 W/m2
15:34 5.8 °C 5.2 °C 1015.8 hPa Calm     96% 2.29 mm 12.00 W/m2
15:39 5.8 °C 5.2 °C 1015.8 hPa Calm   1.6 km/h 96% 2.03 mm 11.00 W/m2
15:44 5.7 °C 5.1 °C 1015.8 hPa Calm     96% 3.56 mm 11.00 W/m2
15:49 5.7 °C 5.1 °C 1015.8 hPa Calm     96% 2.03 mm 11.00 W/m2
15:54 5.7 °C 5.1 °C 1015.8 hPa Calm     96% 3.56 mm 14.00 W/m2
15:59 5.7 °C 5.1 °C 1015.8 hPa Calm     96% 2.03 mm 11.00 W/m2
16:04 5.6 °C 5 °C 1015.8 hPa Calm     96% 1.78 mm 12.00 W/m2
16:09 5.6 °C 5 °C 1015.8 hPa Calm     96% 3.05 mm 9.00 W/m2
16:14 5.6 °C 4.9 °C 1015.8 hPa Calm     96% 1.78 mm 11.00 W/m2
16:19 5.6 °C 4.9 °C 1015.8 hPa Calm     96% 1.78 mm 5.00 W/m2
16:24 5.6 °C 4.9 °C 1015.8 hPa Calm     96% 2.29 mm 5.00 W/m2
16:29 5.6 °C 4.9 °C 1015.5 hPa Calm     96% 1.78 mm 5.00 W/m2
16:34 5.6 °C 4.9 °C 1015.5 hPa Calm     96% 1.78 mm 0.00 W/m2
16:39 5.6 °C 4.9 °C 1015.5 hPa Calm     96% 2.03 mm 5.00 W/m2
16:44 5.6 °C 4.9 °C 1015.5 hPa Calm     96% 2.03 mm 0.00 W/m2
16:49 5.6 °C 4.9 °C 1015.1 hPa Calm     96% 1.52 mm 0.00 W/m2
16:54 5.6 °C 4.9 °C 1015.1 hPa Calm     96% 3.05 mm 0.00 W/m2
16:59 5.6 °C 4.9 °C 1015.1 hPa Calm     96% 2.03 mm 0.00 W/m2
17:04 5.6 °C 4.9 °C 1015.1 hPa Calm     96% 2.03 mm 0.00 W/m2
17:09 5.6 °C 4.9 °C 1015.1 hPa Calm     96% 3.3 mm 0.00 W/m2
17:14 5.6 °C 4.9 °C 1015.1 hPa Calm     96% 2.03 mm 0.00 W/m2
17:19 5.5 °C 4.9 °C 1015.1 hPa Calm     96% 2.03 mm 0.00 W/m2
17:25 5.4 °C 4.9 °C 1015.1 hPa Calm     96% 2.03 mm 0.00 W/m2
17:30 5.4 °C 4.9 °C 1015.1 hPa Calm     96% 1.52 mm 0.00 W/m2
17:35 5.4 °C 4.9 °C 1015.1 hPa Calm     96% 1.52 mm 0.00 W/m2
17:40 5.4 °C 5 °C 1014.8 hPa Calm     97% 1.78 mm 0.00 W/m2
17:45 5.4 °C 4.9 °C 1014.8 hPa Calm     96% 1.78 mm 0.00 W/m2
17:50 5.4 °C 4.8 °C 1014.8 hPa Calm     96% 1.52 mm 0.00 W/m2
17:55 5.4 °C 4.8 °C 1014.8 hPa Calm     96% 1.52 mm 0.00 W/m2
18:00 5.4 °C 4.8 °C 1014.8 hPa Calm     96% 2.03 mm 0.00 W/m2
18:05 5.3 °C 4.9 °C 1014.8 hPa Calm     97% 1.78 mm 0.00 W/m2
18:10 5.3 °C 4.9 °C 1014.8 hPa Calm     97% 1.52 mm 0.00 W/m2
18:15 5.3 °C 4.7 °C 1014.8 hPa Calm     96% 3.05 mm 0.00 W/m2
18:20 5.3 °C 4.7 °C 1014.8 hPa Calm     96% 2.03 mm 0.00 W/m2
18:25 5.3 °C 4.7 °C 1014.4 hPa Calm     96% 1.78 mm 0.00 W/m2
18:30 5.3 °C 4.7 °C 1014.4 hPa Calm     96% 1.78 mm 0.00 W/m2
18:35 5.3 °C 4.7 °C 1014.8 hPa Calm     96% 1.78 mm 0.00 W/m2
18:40 5.3 °C 4.7 °C 1014.4 hPa Calm     96% 1.52 mm 0.00 W/m2
18:45 5.3 °C 4.7 °C 1014.4 hPa Calm     96% 1.27 mm 0.00 W/m2
18:50 5.3 °C 4.7 °C 1014.4 hPa Calm     96% 1.27 mm 0.00 W/m2
18:55 5.3 °C 4.7 °C 1014.4 hPa Calm     96% 1.27 mm 0.00 W/m2
19:00 5.3 °C 4.7 °C 1014.4 hPa Calm     96% 1.27 mm 0.00 W/m2
19:05 5.3 °C 4.7 °C 1014.8 hPa Calm     96% 1.27 mm 0.00 W/m2
19:10 5.3 °C 4.7 °C 1014.8 hPa Calm     96% 1.02 mm 0.00 W/m2
19:15 5.3 °C 4.7 °C 1014.8 hPa Calm     96% 1.02 mm 0.00 W/m2
19:20 5.3 °C 4.9 °C 1014.8 hPa Calm     97% 2.03 mm 0.00 W/m2
19:25 5.3 °C 4.9 °C 1014.8 hPa Calm     97% 3.56 mm 0.00 W/m2
19:26 5.4 °C 4.9 °C 1014.8 hPa Calm     97% 3.56 mm 0.00 W/m2
19:31 5.4 °C 4.9 °C 1014.8 hPa Calm     97% 2.03 mm 0.00 W/m2
19:36 5.4 °C 4.9 °C 1015.1 hPa Calm     97% 2.03 mm 0.00 W/m2
19:41 5.4 °C 4.9 °C 1015.1 hPa Calm     97% 1.27 mm 0.00 W/m2
19:46 5.4 °C 4.9 °C 1015.1 hPa Calm     97% 1.02 mm 0.00 W/m2
19:51 5.3 °C 4.9 °C 1014.8 hPa Calm     97% 1.02 mm 0.00 W/m2
19:56 5.3 °C 4.8 °C 1014.8 hPa Calm     97% 1.52 mm 0.00 W/m2
20:01 5.3 °C 4.8 °C 1014.8 hPa Calm     97% 1.52 mm 0.00 W/m2
20:06 5.2 °C 4.6 °C 1014.8 hPa Calm     96% 1.52 mm 0.00 W/m2
20:11 5.2 °C 4.6 °C 1014.8 hPa Calm     96% 1.02 mm 0.00 W/m2
20:16 5.2 °C 4.7 °C 1014.8 hPa Calm     97% 0 mm 0.00 W/m2
20:21 5.2 °C 4.7 °C 1014.8 hPa Calm     97% 0 mm 0.00 W/m2
20:26 5.2 °C 4.7 °C 1014.4 hPa Calm     97% 0 mm 0.00 W/m2
20:31 5.2 °C 4.7 °C 1014.8 hPa Calm     97% 0 mm 0.00 W/m2
20:36 5.2 °C 4.7 °C 1014.8 hPa Calm     97% 0 mm 0.00 W/m2
20:41 5.2 °C 4.7 °C 1014.4 hPa Calm     97% 0 mm 0.00 W/m2
20:46 5.2 °C 4.7 °C 1014.8 hPa Calm     97% 0 mm 0.00 W/m2
20:51 5.2 °C 4.7 °C 1014.4 hPa Calm     97% 0 mm 0.00 W/m2
20:56 5.2 °C 4.8 °C 1014.4 hPa Calm     97% 2.03 mm 0.00 W/m2
21:01 5.2 °C 4.8 °C 1014.4 hPa Calm     97% 2.03 mm 0.00 W/m2
21:06 5.2 °C 4.8 °C 1014.4 hPa Calm     97% 1.27 mm 0.00 W/m2
21:11 5.2 °C 4.8 °C 1014.4 hPa Calm     97% 1.02 mm 0.00 W/m2
21:16 5.2 °C 4.8 °C 1014.4 hPa Calm     97% 0 mm 0.00 W/m2
21:21 5.2 °C 4.8 °C 1014.4 hPa Calm     97% 0 mm 0.00 W/m2
21:26 5.2 °C 4.8 °C 1014.4 hPa Calm     97% 0 mm 0.00 W/m2
21:31 5.2 °C 4.8 °C 1014.4 hPa Calm     97% 0 mm 0.00 W/m2
21:36 5.3 °C 4.8 °C 1014.4 hPa Calm     97% 0 mm 0.00 W/m2
21:41 5.2 °C 4.8 °C 1014.4 hPa Calm     97% 0 mm 0.00 W/m2
21:46 5.3 °C 4.8 °C 1014.8 hPa Calm     97% 1.27 mm 0.00 W/m2
21:51 5.3 °C 4.8 °C 1015.1 hPa Calm     97% 4.06 mm 0.00 W/m2
21:56 5.3 °C 4.8 °C 1015.1 hPa Calm   17.7 km/h 97% 2.29 mm 0.00 W/m2
22:01 5.3 °C 4.8 °C 1015.1 hPa Calm     97% 3.3 mm 0.00 W/m2
22:06 5.3 °C 4.9 °C 1015.1 hPa Calm     97% 2.29 mm 0.00 W/m2
22:11 5.3 °C 4.9 °C 1015.5 hPa Calm     97% 1.27 mm 0.00 W/m2
22:16 5.4 °C 4.9 °C 1015.5 hPa Calm     97% 1.02 mm 0.00 W/m2
22:21 5.4 °C 4.9 °C 1015.5 hPa Calm     97% 0 mm 0.00 W/m2
22:26 5.4 °C 4.9 °C 1015.5 hPa Calm     97% 0 mm 0.00 W/m2
22:31 5.4 °C 4.9 °C 1015.1 hPa Calm     97% 0 mm 0.00 W/m2
22:36 5.4 °C 4.9 °C 1015.1 hPa Calm     97% 0 mm 0.00 W/m2
22:41 5.4 °C 4.9 °C 1015.1 hPa Calm     97% 0 mm 0.00 W/m2
22:46 5.3 °C 4.9 °C 1015.1 hPa Calm     97% 0 mm 0.00 W/m2
22:51 5.3 °C 4.9 °C 1015.1 hPa Calm     97% 0 mm 0.00 W/m2
22:56 5.3 °C 4.9 °C 1015.1 hPa Calm     97% 0 mm 0.00 W/m2
23:01 5.3 °C 4.9 °C 1015.1 hPa Calm     97% 0 mm 0.00 W/m2
23:06 5.3 °C 4.9 °C 1015.1 hPa Calm     97% 0 mm 0.00 W/m2
23:11 5.3 °C 4.9 °C 1015.1 hPa Calm     97% 0 mm 0.00 W/m2
23:16 5.3 °C 4.9 °C 1015.1 hPa Calm     97% 0 mm 0.00 W/m2
23:21 5.3 °C 4.9 °C 1015.1 hPa Calm     97% 1.27 mm 0.00 W/m2
23:26 5.3 °C 4.9 °C 1015.5 hPa Calm     97% 1.27 mm 0.00 W/m2
23:31 5.3 °C 4.9 °C 1015.1 hPa Calm     97% 2.03 mm 0.00 W/m2
23:36 5.3 °C 4.9 °C 1015.1 hPa Calm     97% 2.03 mm 0.00 W/m2
23:41 5.3 °C 4.9 °C 1014.8 hPa Calm     97% 1.27 mm 0.00 W/m2
23:46 5.3 °C 4.9 °C 1015.1 hPa Calm     97% 0 mm 0.00 W/m2
23:51 5.3 °C 4.9 °C 1015.1 hPa Calm     97% 0 mm 0.00 W/m2
23:56 5.3 °C 4.9 °C 1015.1 hPa Calm     97% 0 mm 0.00 W/m2
Foresthill Weather
 WU-history PHP script courtesy of   Juneau County Weather.
powered by Cumulus v1.9.3 (1059)
Ambient Weather VWS v14.00
Top Contact Website Map Copyright © 2007 - 2018 Foresthillweather.com Never base important decisions on this or any weather information obtained from the Internet